Location: Ferchesar
(52.6477°N, 12.4298°E)
Time: 15:24:56
(UTC+01:00)

AO-73 - Pass Details

Date: 26 October 2021
Orbit: 581 x 660 km, 97.6° (Epoch: 04 December)

Event Time Altitude Azimuth Distance (km) Brightness Sun altitude
Rises 06:36:37 0° 9° (N) 2,823 ? -12.6°
Reaches altitude 10° 06:38:50 10° 3° (N) 1,924 ? -12.2°
Maximum altitude 06:42:46 43° 292° (WNW) 841 ? -11.6°
Drops below altitude 10° 06:46:45 10° 221° (SW) 1,940 ? -11.0°
Sets 06:49:00 0° 214° (SW) 2,850 ? -10.7°
